Date String (YYYY-MM-DD hh:mm:ss) UTC,Instrument flags,absolute air pressure of the measurement (hPa),sample flow rate (lpm),inlet stack bypass flow (lpm),air temperature of the measurement (°C),ambient temperature measured by the external sensor (°C),aerosol sample conditioner tube jacket temperature (°C),OPC LED temperature (°C),internal box temperature (°C),relative humidity of the measurement (%),span deviation,mass concentration of particles derived from Lorenz-Mie calculation of OPC scattering (μg/m³),mass concentration of particles derived from Lorenz-Mie calculation of OPC scattering (μg/m³),mass concentration of particles derived from Lorenz-Mie calculation of OPC scattering (μg/m³)
DateTimeUTC,F1_M11,P_M11,Q1_M11,Q2_M11,T1_M11,T2_M11,T3_M11,T4_M11,T5_M11,U1_M11,ZSPAN_M11,X0_M11,X2_M11,X1_M11
2024-01-07 15:00:00,SystemResetWarning,0815.9,5.01,000.00,018.8,018.1,000.0,027.2,020.0,9.4,0000.0,0008.87,0003.85,0003.18
2024-01-07 15:01:00,SystemResetWarning,0815.9,5.00,000.00,018.8,018.0,000.0,027.2,020.0,9.5,0000.0,0008.82,0003.87,0003.20
2024-01-07 15:02:00,SystemResetWarning,0815.9,5.01,000.00,018.8,018.0,000.0,027.2,020.0,9.5,0000.0,0008.95,0003.88,0003.22
2024-01-07 15:03:00,SystemResetWarning,0815.9,5.00,000.00,018.8,017.9,000.0,027.2,020.0,9.5,0000.0,0009.16,0003.91,0003.23
2024-01-07 15:04:00,SystemResetWarning,0815.9,5.00,000.00,018.8,017.8,000.0,027.2,020.0,9.5,0000.0,0009.17,0003.92,0003.23
2024-01-07 15:05:00,SystemResetWarning,0815.9,5.00,000.00,018.8,017.8,000.0,027.2,020.0,9.5,0000.0,0009.57,0003.91,0003.22
2024-01-07 15:06:00,SystemResetWarning,0815.9,5.00,000.00,018.8,017.8,000.0,027.2,020.0,9.5,0000.0,0010.80,0003.92,0003.22
2024-01-07 15:07:00,SystemResetWarning,0815.8,5.00,000.00,018.7,017.8,000.0,027.2,020.0,9.6,0000.0,0011.41,0003.89,0003.20
2024-01-07 15:08:00,SystemResetWarning,0815.9,5.00,000.00,018.7,017.8,000.0,027.2,020.0,9.6,0000.0,0011.46,0003.89,0003.20
2024-01-07 15:09:00,SystemResetWarning,0815.9,5.00,000.00,018.7,017.8,000.0,027.2,020.0,9.6,0000.0,0011.40,0003.90,0003.19
2024-01-07 15:10:00,SystemResetWarning,0815.9,5.00,000.00,018.7,017.8,000.0,027.2,020.0,9.6,0000.0,0011.35,0003.91,0003.19
2024-01-07 15:11:00,SystemResetWarning,0815.9,5.00,000.00,018.7,017.8,000.0,027.2,020.0,9.6,0000.0,0011.06,0003.92,0003.19
2024-01-07 15:12:00,SystemResetWarning,0816.0,5.00,000.00,018.7,017.8,000.0,027.2,020.0,9.6,0000.0,0011.02,0003.91,0003.18
2024-01-07 15:13:00,SystemResetWarning,0815.9,5.00,000.00,018.7,017.8,000.0,027.2,020.0,9.7,0000.0,0010.97,0003.90,0003.17
2024-01-07 15:14:00,SystemResetWarning,0815.9,5.00,000.00,018.7,017.8,000.0,027.2,020.0,9.7,0000.0,0010.61,0003.85,0003.16
2024-01-07 15:15:00,SystemResetWarning,0815.9,5.00,000.00,018.7,017.8,000.0,027.2,020.0,9.7,0000.0,0010.55,0003.88,0003.16
2024-01-07 15:16:00,SystemResetWarning,0815.9,5.00,000.00,018.7,017.8,000.0,027.2,020.0,9.7,0000.0,0010.31,0003.87,0003.18
2024-01-07 15:17:00,SystemResetWarning,0816.0,5.00,000.00,018.7,017.7,000.0,027.2,020.0,9.8,0000.0,0008.92,0003.86,0003.18
2024-01-07 15:18:00,SystemResetWarning,0816.0,5.00,000.00,018.7,017.7,000.0,027.2,020.0,9.7,0000.0,0008.06,0003.87,0003.18
2024-01-07 15:19:00,SystemResetWarning,0816.0,5.00,000.00,018.7,017.7,000.0,027.2,020.0,9.7,0000.0,0008.01,0003.86,0003.18
2024-01-07 15:20:00,SystemResetWarning,0816.0,5.00,000.00,018.7,017.7,000.0,027.2,020.0,9.6,0000.0,0007.81,0003.82,0003.17
2024-01-07 15:21:00,SystemResetWarning,0816.0,5.01,000.00,018.7,017.7,000.0,027.2,020.0,9.6,0000.0,0007.61,0003.79,0003.19
2024-01-07 15:22:00,SystemResetWarning,0816.0,5.01,000.00,018.7,017.7,000.0,027.2,020.0,9.6,0000.0,0009.05,0003.79,0003.19
2024-01-07 15:23:00,SystemResetWarning,0816.0,5.00,000.00,018.7,017.8,000.0,027.2,020.0,9.5,0000.0,0009.36,0003.81,0003.22
2024-01-07 15:24:00,SystemResetWarning,0816.0,5.00,000.00,018.7,017.8,000.0,027.1,020.0,9.5,0000.0,0009.43,0003.84,0003.22
2024-01-07 15:25:00,SystemResetWarning,0816.0,4.99,000.00,018.7,017.8,000.0,027.1,020.0,9.5,0000.0,0009.42,0003.86,0003.23
2024-01-07 15:26:00,SystemResetWarning,0816.0,4.99,000.00,018.7,017.8,000.0,027.2,020.0,9.5,0000.0,0009.31,0003.84,0003.23
2024-01-07 15:27:00,SystemResetWarning,0816.0,5.00,000.00,018.7,017.8,000.0,027.1,020.0,9.5,0000.0,0009.37,0003.84,0003.24
2024-01-07 15:28:00,SystemResetWarning,0816.0,5.00,000.00,018.7,017.8,000.0,027.1,020.0,9.5,0000.0,0009.64,0003.85,0003.25
2024-01-07 15:29:00,SystemResetWarning,0816.0,5.01,000.00,018.7,017.8,000.0,027.1,020.0,9.5,0000.0,0009.93,0003.87,0003.26
2024-01-07 15:30:00,SystemResetWarning,0816.0,5.00,000.00,018.7,017.8,000.0,027.1,020.0,9.5,0000.0,0010.53,0003.90,0003.28
2024-01-07 15:31:00,SystemResetWarning,0816.0,5.00,000.00,018.7,017.8,000.0,027.1,020.2,9.5,0000.0,0010.74,0003.91,0003.29
2024-01-07 15:32:00,SystemResetWarning,0816.1,5.00,000.00,018.8,018.4,000.0,027.1,020.6,9.5,0000.0,0010.86,0003.96,0003.29
2024-01-07 15:33:00,SystemResetWarning,0816.1,4.99,000.00,018.9,019.0,000.0,027.2,020.8,9.4,0000.0,0009.14,0003.98,0003.30
2024-01-07 15:34:00,SystemResetWarning,0816.1,4.99,000.00,019.0,018.9,000.0,027.2,020.5,9.3,0000.0,0008.98,0004.01,0003.28
2024-01-07 15:35:00,SystemResetWarning,0816.0,5.01,000.00,019.0,018.8,000.0,027.2,020.3,9.3,0000.0,0009.18,0004.01,0003.27
2024-01-07 15:36:00,SystemResetWarning,0816.0,5.01,000.00,018.9,018.7,000.0,027.2,020.1,9.3,0000.0,0009.21,0004.01,0003.26
2024-01-07 15:37:00,SystemResetWarning,0816.0,4.99,000.00,018.9,018.6,000.0,027.2,020.1,9.4,0000.0,0009.45,0004.01,0003.27
2024-01-07 15:38:00,SystemResetWarning,0816.0,4.99,000.00,018.9,018.4,000.0,027.2,020.0,9.4,0000.0,0009.89,0004.00,0003.27
2024-01-07 15:39:00,SystemResetWarning,0816.0,5.00,000.00,018.8,018.4,000.0,027.2,020.0,9.6,0000.0,0010.02,0004.06,0003.27
2024-01-07 15:40:00,SystemResetWarning,0816.1,5.01,000.00,018.8,018.3,000.0,027.2,020.0,9.6,0000.0,0009.95,0004.05,0003.26
2024-01-07 15:41:00,SystemResetWarning,0816.1,5.01,000.00,018.8,018.2,000.0,027.2,020.0,9.6,0000.0,0009.82,0004.03,0003.25
2024-01-07 15:42:00,SystemResetWarning,0816.1,5.00,000.00,018.8,018.2,000.0,027.2,020.0,9.6,0000.0,0009.28,0003.98,0003.23
2024-01-07 15:43:00,SystemResetWarning,0816.0,5.00,000.00,018.8,018.1,000.0,027.2,020.0,9.6,0000.0,0009.11,0003.93,0003.20
2024-01-07 15:44:00,SystemResetWarning,0816.0,5.00,000.00,018.8,018.1,000.0,027.2,020.0,9.6,0000.0,0009.15,0003.91,0003.19
2024-01-07 15:45:00,SystemResetWarning,0816.0,4.99,000.00,018.8,018.1,000.0,027.2,020.0,9.7,0000.0,0009.04,0003.86,0003.19
2024-01-07 15:46:00,SystemResetWarning,0816.0,4.99,000.00,018.8,018.0,000.0,027.2,020.0,9.7,0000.0,0008.87,0003.84,0003.20
2024-01-07 15:47:00,SystemResetWarning,0816.0,5.02,000.00,018.8,018.0,000.0,027.2,020.0,9.7,0000.0,0008.63,0003.82,0003.20
2024-01-07 15:48:00,SystemResetWarning,0816.0,5.00,000.00,018.8,018.0,000.0,027.2,020.0,9.7,0000.0,0008.46,0003.80,0003.21
2024-01-07 15:49:00,SystemResetWarning,0816.0,4.99,000.00,018.8,018.0,000.0,027.2,020.0,9.6,0000.0,0008.42,0003.82,0003.21
2024-01-07 15:50:00,SystemResetWarning,0816.0,4.99,000.00,018.7,018.0,000.0,027.2,020.0,9.6,0000.0,0008.61,0003.86,0003.23
2024-01-07 15:51:00,SystemResetWarning,0816.0,5.01,000.00,018.7,018.0,000.0,027.2,020.0,9.6,0000.0,0008.68,0003.90,0003.26
2024-01-07 15:52:00,SystemResetWarning,0816.0,5.01,000.00,018.7,018.0,000.0,027.2,020.0,9.7,0000.0,0008.76,0003.94,0003.30
2024-01-07 15:53:00,SystemResetWarning,0816.0,4.98,000.00,018.7,018.0,000.0,027.2,020.0,9.6,0000.0,0008.91,0004.01,0003.34
2024-01-07 15:54:00,SystemResetWarning,0816.0,5.00,000.00,018.7,017.9,000.0,027.2,020.0,9.6,0000.0,0009.10,0004.09,0003.40
2024-01-07 15:55:00,SystemResetWarning,0816.1,5.01,000.00,018.7,017.9,000.0,027.2,020.0,9.6,0000.0,0009.53,0004.13,0003.44
2024-01-07 15:56:00,SystemResetWarning,0816.1,5.01,000.00,018.7,017.9,000.0,027.2,020.0,9.6,0000.0,0009.74,0004.18,0003.48
2024-01-07 15:57:00,SystemResetWarning,0816.1,5.01,000.00,018.7,017.9,000.0,027.2,020.0,9.6,0000.0,0009.89,0004.25,0003.51
2024-01-07 15:58:00,SystemResetWarning,0816.1,5.00,000.00,018.7,017.9,000.0,027.2,020.0,9.7,0000.0,0010.65,0004.35,0003.55
2024-01-07 15:59:00,SystemResetWarning,0816.1,4.99,000.00,018.7,017.9,000.0,027.2,020.0,9.7,0000.0,0010.75,0004.43,0003.58
